Change the Weather History Date:

Friday, February 7, 2014

  Actual Average Record
Temperature  
Mean Temperature 43 °F 48 °F  
Max Temperature 53 °F 59 °F 78 °F (1999)
Min Temperature 33 °F 37 °F 15 °F (1978)
Degree Days  
Heating Degree Days 22 17  
Month to date heating degree days 102 122  
Since 1 July heating degree days 1599 1619  
Cooling Degree Days 0 0  
Month to date cooling degree days 0 0  
Year to date cooling degree days 0 1  
Moisture  
Dew Point 32 °F    
Average Humidity 69    
Maximum Humidity 89    
Minimum Humidity 41    
Precipitation  
Precipitation 0.00 in 0.10 in 2.27 in (2013)
Month to date precipitation 0.65 0.68  
Year to date precipitation 2.81 4.66  
Sea Level Pressure  
Sea Level Pressure 30.28 in    
Wind  
Wind Speed 3 mph (ENE)    
Max Wind Speed 9 mph    
Max Gust Speed 13 mph    
Visibility 9 miles    
Events      
T = Trace of Precipitation, MM = Missing Value Source: NWS Daily Summary

Daily Weather History Graph

Daily Weather History Graph

Search for Another Location

Airport or City:

Trip Planner

Search our weather history database for the weather conditions in past years. The results will help you decide how hot, cold, wet, or windy it might be!

Date:

Astronomy

Feb. 07, 2014 Rise Set
Actual Time 7:14 AM EST 6:00 PM EST
Civil Twilight 6:49 AM EST 6:26 PM EST
Nautical Twilight 6:19 AM EST 6:55 PM EST
Astronomical Twilight 5:50 AM EST 7:25 PM EST
Moon 12:14 PM EST (2/7) 1:27 AM EST (2/7)
Length of Visible Light 11h 37m
Length of Day
10h 45m
First Quarter, 59% of the Moon is Illuminated
Feb 7
First Quarter
Feb 14
Full
Feb 22
Last Quarter
Mar 1
New
Mar 8
First Quarter

Hourly Weather History & Observations

Time (EST) Temp. Windchill Dew Point Humidity Pressure Visibility Wind Dir Wind Speed Gust Speed Precip Events Conditions
12:53 AM 41.0 °F - 34.0 °F 76% 30.27 in 10.0 mi Calm Calm - N/A   Overcast
1:53 AM 39.9 °F - 35.1 °F 83% 30.25 in 10.0 mi Calm Calm - N/A   Overcast
2:53 AM 37.0 °F - 33.1 °F 86% 30.25 in 7.0 mi Calm Calm - N/A   Clear
3:53 AM 37.0 °F 33.3 °F 33.1 °F 86% 30.26 in 8.0 mi NNE 4.6 mph - N/A   Clear
4:53 AM 35.1 °F - 32.0 °F 89% 30.28 in 8.0 mi Calm Calm - N/A   Clear
5:53 AM 35.1 °F 32.2 °F 30.9 °F 85% 30.30 in 8.0 mi NNE 3.5 mph - N/A   Clear
6:53 AM 34.0 °F 31.0 °F 30.9 °F 89% 30.31 in 6.0 mi NE 3.5 mph - N/A   Clear
7:53 AM 35.1 °F 31.0 °F 30.9 °F 85% 30.31 in 5.0 mi NE 4.6 mph - N/A   Clear
8:53 AM 39.0 °F 35.7 °F 33.1 °F 79% 30.32 in 7.0 mi East 4.6 mph - N/A   Clear
9:53 AM 43.0 °F 38.8 °F 33.1 °F 68% 30.35 in 10.0 mi ENE 6.9 mph - N/A   Clear
10:53 AM 46.0 °F 43.1 °F 32.0 °F 58% 30.35 in 10.0 mi Variable 5.8 mph - N/A   Clear
11:53 AM 48.0 °F - 30.0 °F 50% 30.33 in 10.0 mi NE 4.6 mph - N/A   Clear
12:53 PM 48.9 °F - 30.0 °F 48% 30.31 in 10.0 mi Calm Calm - N/A   Clear
1:53 PM 51.1 °F - 30.0 °F 44% 30.27 in 10.0 mi East 3.5 mph - N/A   Clear
2:53 PM 52.0 °F - 30.0 °F 43% 30.26 in 10.0 mi East 4.6 mph - N/A   Clear
3:53 PM 53.1 °F - 30.9 °F 43% 30.25 in 10.0 mi North - - N/A   Clear
4:53 PM 52.0 °F - 30.9 °F 45% 30.26 in 10.0 mi Calm Calm - N/A   Clear
5:53 PM 48.9 °F - 32.0 °F 52% 30.27 in 10.0 mi SE 3.5 mph - N/A   Clear
6:53 PM 45.0 °F 43.5 °F 34.0 °F 65% 30.27 in 10.0 mi East 3.5 mph - N/A   Clear
7:53 PM 44.1 °F 42.5 °F 34.0 °F 68% 30.27 in 10.0 mi East 3.5 mph - N/A   Clear
8:53 PM 43.0 °F - 33.1 °F 68% 30.27 in 10.0 mi Calm Calm - N/A   Clear
9:53 PM 39.9 °F - 34.0 °F 79% 30.27 in 9.0 mi Calm Calm - N/A   Clear
10:53 PM 39.9 °F - 35.1 °F 83% 30.27 in 10.0 mi Calm Calm - N/A   Clear
11:53 PM 37.0 °F - 34.0 °F 89% 30.26 in 9.0 mi Calm Calm - N/A   Clear